Location: Berg
(48.4333°N, 13.9167°E)
Time: 08:55:30
(UTC+00:00)

USA 238 DEB - Pass Details

Date: 18 September 2020
Orbit: 1006 x 1206 km, 63.4° (Epoch: 15 October)

Event Time Altitude Azimuth Distance (km) Brightness Sun altitude
Rises 19:32:49 0° 317° (NW) 3,946 8.0 -23.3°
Reaches altitude 10° 19:35:29 10° 315° (NW) 3,013 7.1 -23.7°
Maximum altitude 19:42:35 64° 236° (SW) 1,281 4.1 -24.6°
Enters shadow 19:45:39 37° 170° (S) 1,753 4.4 -25.1°
